This is the latest recevied weather packets stored in our database for station/object N8QF-1. If no packets are shown the sender has not sent any weather packets the latest 10 day(s).
| Time | Temp. | Humidity | Pressure | Rain* | Wind** | Luminosity | Snow |
|---|---|---|---|---|---|---|---|
| 1778081623 | 12.22° C | 59% | 1013.8 hPa | 0 mm | - | - | - |
| 1778081323 | 11.67° C | 59% | 1013.5 hPa | 0 mm | - | - | - |
| 1778081022 | 12.22° C | 58% | 1013.5 hPa | 0 mm | - | - | - |
| 1778080722 | 11.67° C | 62% | 1013.5 hPa | 0 mm | - | - | - |
| 1778080517 | 11.67° C | 59% | 1013.3 hPa | 0 mm | - | - | - |
| 1778080421 | 11.67° C | 59% | 1013.3 hPa | 0 mm | - | - | - |
| 1778080120 | 11.67° C | 60% | 1013.1 hPa | 0 mm | - | - | - |
| 1778079819 | 11.67° C | 62% | 1012.9 hPa | 0 mm | - | - | - |
| 1778079218 | 11.11° C | 64% | 1012.5 hPa | 0 mm | - | - | - |
| 1778078918 | 11.11° C | 64% | 1012.5 hPa | 0 mm | - | - | - |
| 1778078617 | 10.56° C | 63% | 1012.5 hPa | 0 mm | - | - | - |
| 1778078315 | 10.56° C | 63% | 1012.5 hPa | 0 mm | - | - | - |
| 1778078015 | 11.11° C | 65% | 1012.3 hPa | 0 mm | - | - | - |
| 1778077715 | 10.56° C | 65% | 1012.2 hPa | 0 mm | - | - | - |
| 1778077414 | 10.56° C | 66% | 1012.3 hPa | 0 mm | - | - | - |
| 1778077113 | 10.56° C | 66% | 1012.4 hPa | 0 mm | - | - | - |
| 1778076813 | 10° C | 68% | 1012.4 hPa | 0 mm | - | - | - |
| 1778076212 | 10° C | 69% | 1012.1 hPa | 0 mm | - | - | - |
| 1778075609 | 9.44° C | 73% | 1012.3 hPa | 0 mm | - | - | - |
| 1778075305 | 9.44° C | 74% | 1012.4 hPa | 0 mm | - | - | - |
| 1778075005 | 9.44° C | 75% | 1012.6 hPa | 0 mm | - | - | - |
| 1778074704 | 9.44° C | 76% | 1012.6 hPa | 0 mm | - | - | - |
| 1778074404 | 9.44° C | 76% | 1012.4 hPa | 0 mm | - | - | - |
| 1778074103 | 9.44° C | 78% | 1012.2 hPa | 0 mm | - | - | - |
| 1778073803 | 8.89° C | 80% | 1012.1 hPa | 0 mm | - | - | - |
* Rain latest hour (hover to see other rain measurements)
** Current wind speed in m/s (hover to see current wind gust speed)